Skip Page Navigation
NASA JPL Caltech
NASA Logo - Jet Propulsion Laboratory + View the NASA Portal
+ Near-Earth Object (NEO) Program
Search JPL
JPL Home Earth Solar System Stars & Galaxies Technology
JPL Solar System Dynamics
BODIES ORBITS EPHEMERIDES TOOLS PHYSICAL DATA DISCOVERY FAQ SITE MAP
JPL Small-Body Database Browser
Search: [ help ]  
23494 (1991 SE2)
Classification: Main-belt Asteroid          SPK-ID: 2023494
Ephemeris | Orbit Diagram | Orbital Elements | Physical Parameters | Discovery Circumstances | Close-Approach Data ]

[ show orbit diagram ]
Orbital Elements at Epoch 2457000.5 (2014-Dec-09.0) TDB
Reference: JPL 8 (heliocentric ecliptic J2000)
 Element Value Uncertainty (1-sigma)   Units 
e .2289949876669356 4.7895e-08  
a 2.362576278706353 1.295e-08 AU
q 1.821558152901797 1.1262e-07 AU
i 2.417266629076233 5.7113e-06 deg
node 168.1485122633764 0.00012913 deg
peri 145.2874723143868 0.00012983 deg
M 166.6727835479676 1.5529e-05 deg
tp 2456386.399609834509
(2013-Apr-03.89960983)
5.5113e-05 JED
period 1326.408161869765
3.63
1.0906e-05
2.986e-08
d
yr
n .2714096688703481 2.2315e-09 deg/d
Q 2.903594404510909 1.5916e-08 AU
  Orbit Determination Parameters
   # obs. used (total)      990  
   data-arc span      22311 days (61.08 yr)  
   first obs. used      1953-01-09  
   last obs. used      2014-02-09  
   planetary ephem.      DE431  
   SB-pert. ephem.      SB431-BIG16  
   condition code      0  
   fit RMS      .50961  
   data source      ORB  
   producer      Otto Matic  
   solution date      2014-Jun-09 23:33:08  

Additional Information
 Earth MOID = .80919 AU 
 T_jup = 3.513 
[ show covariance matrix ]

Ephemeris | Orbit Diagram | Orbital Elements | Physical Parameters | Discovery Circumstances | Close-Approach Data ]

Physical Parameter Table
Parameter Symbol Value Units Sigma Reference Notes
absolute magnitude H 14.4 mag n/a MPO266078  

23494 (1991 SE2)          Discovered 1991-Sep-16 by Holt, H. E. at Palomar (675)
Reference: 20010408/Numbers.arcLast Updated: 2004-04-19

[ show close-approach data ]
Alternate Designations
 1991 SE2 = 1994 GM 
Ephemeris | Orbit Diagram | Orbital Elements | Physical Parameters | Discovery Circumstances | Close-Approach Data ]
ABOUT SSD CREDITS/AWARDS PRIVACY/COPYRIGHT GLOSSARY LINKS
FirstGov 2014-Sep-02 11:41 UT
(server date/time)  
NASA Home Page
Site Manager:   Donald K. Yeomans
Webmaster  Alan B. Chamberlin